Location: Arroyo de Fuente Vieja
(40.4902°N, 4.1175°W)
Time: 05:45:28
(UTC+00:00)

NOSS 3-1 (A) - Pass Details

Date: 18 April 2024
Orbit: 660 x 1550 km, 63.4° (Epoch: 15 May)

Event Time Altitude Azimuth Distance (km) Brightness Sun altitude
Rises 19:41:33 0° 203° (SSW) 2,995 6.1 -8.4°
Reaches altitude 10° 19:43:44 10° 200° (SSW) 2,120 5.3 -8.8°
Maximum altitude 19:48:25 64° 120° (ESE) 822 2.9 -9.6°
Drops below altitude 10° 19:53:55 10° 40° (NE) 2,477 5.5 -10.6°
Sets 19:56:39 0° 37° (NE) 3,548 6.3 -11.1°
